359  
ASUS46 KEKA 202015  
RWREKA  
EUREKA AREA WEATHER ROUNDUP  
NATIONAL WEATHER SERVICE EUREKA CA  
100 PM PDT SUN AUG 20 2017  
 
NOTE: "FAIR" INDICATES FEW OR NO CLOUDS BELOW 12,000 FEET WITH NO  
SIGNIFICANT WEATHER AND/OR S TO VISIBILITY
.  
 
SOUTHWEST OREGON...  
 
CITY SKY/WX TMP DP RH WIND PRES REMARKS
 
MEDFORD SUNNY 76 46 34 VRB3 30.02F SMOKE  
KLAMATH FALLS SUNNY 78 42 27 VRB3 30.10F  
NORTH BEND SUNNY 63 52 67 N24G31 30.09F  
ROSEBURG SUNNY 80 48 32 N13 30.05F  
SEXTON SUMMIT SUNNY 71 43 36 VRB6 30.13S HAZE  
BROOKINGS CLOUDY 76 48 37 NW7 29.89F  
 
NORTHWEST CALIFORNIA...  
 
CITY SKY/WX TMP DP RH WIND PRES REMARKS
 
CRESCENT CITY CLOUDY 60 51 72 N15G23 29.90S  
MCKINLEYVILLE CLOUDY 64 53 67 SW9 29.91S HAZE  
EUREKA PTSUNNY 61 32 33 SW12G18 29.92R SMOKE  
FORTUNA N/A 63 54 72 N14 29.93S  
WEAVERVILLE NOT AVBL  
TRINITY CENTER N/A 93 N/A N/A SE3 29.93F  
UKIAH SUNNY 80 57 45 SE10 29.86F  
 
NORTH & CENTRAL CALIFORNIA...  
 
CITY SKY/WX TMP DP RH WIND PRES REMARKS
 
YREKA SUNNY 82 40 22 CALM 30.02F  
MOUNT SHASTA SUNNY 82 46 28 VRB5 30.04F  
REDDING SUNNY 93 53 25 VRB5 29.80F HX 90  
RED BLUFF SUNNY 92 54 27 VRB5 29.81F HX 90  
CHICO NOT AVBL  
YUBA CITY SUNNY 86 61 42 S6 29.84F  
SACRAMENTO SUNNY 80 59 48 SW12 29.84F  
SANTA ROSA PTSUNNY 69 56 62 NW7 29.91F  
NAPA SUNNY 73 58 59 S16 29.90S  
SAN FRANCISCO MOSUNNY 68 58 70 N12 29.90S  
OAKLAND MOSUNNY 72 59 63 W13 29.90F  
SALINAS SUNNY 70 58 65 W8 29.90F  
MONTEREY PTSUNNY 68 57 68 W5 29.92F  
 

 
 
 
CLICK HERE TO GO TO PREVIOUS BULLETINS.

The Nexlab CA Page Main Text Page